SCP
0 0 0 0 0 0 0 0 0 0 0 0 0 0 0 0 0 0 0 0 0 0 0 0 0 0 0 0 0 0 0 0 0 0 0 0 -0 0 0 0 1 1 1
0 0 0 0 0 0 0 0 0 0 0 0 0 0 0 0 0 0 0 0 0 0 0 0 0 0 0 0 0 0 0 0 0 0 0 0 0 0 0 0 0 0 1
0 0 0 0 0 0 0 0 0 0 0 0 0 0 0 0 0 0 0 0 0 0 0 0 0 0 0 0 0 0 0 0 0 0 0 0 0 0 0 0 0 0 0
0 0 0 0 0 0 0 0 0 0 0 0 0 0 0 0 0 0 0 0 0 0 0 0 0 0 0 0 0 0 0 0 0 0 0 0 0 0 0 0 0 0 0
0 0 0 0 0 0 0 0 0 0 0 0 0 0 0 0 0 0 0 0 0 0 0 0 0 0 0 0 0 0 0 0 0 0 0 0 0 0 0 0 0 0 0
0 0 0 0 0 0 0 0 0 0 0 0 0 0 0 0 0 0 0 0 0 0 0 0 0 0 0 0 0 0 0 0 0 0 0 0 0 0 0 0 0 0 0
0 0 0 0 0 0 0 0 0 0 0 0 0 0 0 0 0 0 0 0 0 0 0 0 0 0 0 0 0 0 0 0 0 0 0 0 0 0 0 0 0 0 0
0 0 0 0 0 0 0 0 0 0 0 0 0 0 0 0 0 0 0 0 0 0 0 0 0 0 0 0 0 0 0 0 0 0 0 0 0 0 0 0 0 0 0
0 0 0 0 0 0 0 0 0 0 0 0 0 0 0 0 0 0 0 0 0 0 0 0 0 0 0 0 0 0 0 0 0 0 0 0 0 0 0 0 0 0 0
0 0 0 0 0 0 0 0 0 0 0 0 0 0 0 0 0 0 0 0 0 0 0 0 0 0 0 0 0 0 0 0 0 0 0 0 0 0 0 0 0 0 0
0 0 0 0 0 0 0 0 0 0 0 0 0 0 0 0 0 0 0 0 0 0 0 0 0 0 0 0 0 0 0 0 0 0 0 0 0 0 0 0 0 0 0
0 0 0 0 0 0 0 0 0 0 0 0 0 0 0 0 0 0 0 0 0 0 0 0 0 0 0 0 0 0 0 0 0 0 0 0 0 0 0 0 0 0 0
0 0 0 0 0 0 0 0 0 0 0 0 0 0 0 0 0 0 0 0 0 0 0 0 0 0 0 0 0 0 0 0 0 0 0 0 0 0 0 0 0 0 0
0 0 0 0 0 0 0 0 0 0 0 0 0 0 0 0 0 0 0 0 0 0 0 0 0 0 0 0 0 0 0 0 0 0 0 0 0 0 0 0 0 0 0
0 0 0 0 0 0 0 0 0 0 0 0 0 0 0 0 0 0 0 0 0 0 0 0 0 0 0 0 0 0 0 0 0 0 0 0 0 0 0 0 0 0 0
0 0 0 0 0 0 0 0 0 0 0 0 0 0 0 0 0 0 0 0 0 0 0 0 0 0 0 0 0 0 0 0 0 0 0 0 0 0 0 0 0 0 0
0 0 0 0 0 0 0 0 0 0 0 0 0 0 0 0 0 0 0 0 0 0 0 0 0 0 0 0 0 0 0 0 0 0 0 0 0 0 0 0 0 0 0
0 0 0 0 0 0 0 0 0 0 0 0 0 0 0 0 0 0 0 0 0 0 0 0 0 0 0 0 0 0 0 0 0 0 0 0 0 0 0 0 0 0 0
0 0 0 0 0 0 0 0 0 0 0 0 0 0 0 0 0 0 0 0 0 0 0 0 0 0 0 0 0 0 0 0 0 0 0 0 0 0 0 0 0 0 0
0 0 0 0 0 0 0 0 0 0 0 0 0 0 0 0 0 0 0 0 0 0 0 0 0 0 0 0 0 0 0 0 0 0 0 0 0 0 0 0 0 0 0
0 0 0 0 0 0 0 0 0 0 0 0 0 0 0 0 0 0 0 0 0 0 0 0 0 0 0 0 0 0 0 0 0 0 0 0 0 0 0 0 0 0 0
0 0 0 0 0 0 0 0 0 0 0 0 0 0 0 0 0 0 0 0 0 0 0 0 0 0 0 0 0 0 0 0 0 0 0 0 0 0 0 0 0 0 0
0 0 0 0 0 0 0 0 0 0 0 0 0 0 0 0 0 0 0 0 0 0 0 0 0 0 0 0 0 0 0 0 0 0 0 0 0 0 0 0 0 0 0
0 0 0 0 0 0 0 0 0 0 0 0 0 0 0 0 0 0 0 0 0 0 0 0 0 0 0 0 0 0 0 0 0 0 0 0 0 0 0 0 0 0 0
0 0 0 0 0 0 0 0 0 0 0 0 0 0 0 0 0 0 0 0 0 0 0 0 0 0 0 0 0 0 0 0 0 0 0 0 0 0 0 0 0 0 0
0 0 0 0 0 0 0 0 0 0 0 0 0 0 0 0 0 0 0 0 0 0 0 0 0 0 0 0 0 0 0 0 0 0 -0 0 0 0 0 0 0 0 0
Wind_Speed
8 7 7 8 9 10 11 11 12 12 11 10 11 11 11 10 9 7 11 12 12 13 11 10 11 12 10 12 13 12 13 10 10 10 12 10 11 12 10 10 9 9 8
7 8 7 8 9 10 10 10 11 11 10 9 9 9 10 9 9 8 10 11 12 13 12 11 10 11 11 12 13 13 10 10 10 10 10 8 7 5 8 7 9 9 7
7 7 7 8 8 9 9 11 10 11 10 10 8 10 8 7 7 9 7 9 12 12 11 10 10 10 10 10 13 13 13 11 10 8 7 6 6 12 10 10 7 5 6
6 7 7 8 8 8 8 9 10 10 9 9 10 12 11 10 11 9 9 11 12 12 12 11 11 10 9 11 11 12 12 12 10 8 7 8 9 8 9 11 10 11 9
7 8 8 8 7 7 7 7 9 9 9 9 10 10 9 9 9 10 11 10 10 11 12 12 11 11 10 11 12 12 12 10 10 9 9 9 8 10 9 13 14 10 8
7 7 7 7 6 7 7 7 8 9 9 9 9 10 11 11 12 12 10 10 9 8 10 14 11 12 10 11 12 12 13 12 12 10 8 9 8 8 8 10 13 14 11
7 7 7 7 7 7 8 8 9 9 9 9 9 10 10 10 11 11 11 11 10 9 10 13 12 11 11 12 12 13 13 13 12 10 9 9 10 10 10 11 11 14 13
6 6 7 6 7 7 8 8 9 9 9 9 9 9 9 7 7 9 10 10 9 9 11 12 13 13 14 14 12 12 13 12 12 12 11 9 10 10 10 11 10 11 11
6 6 6 6 6 7 7 8 9 10 10 10 10 9 9 9 9 10 9 8 9 11 12 13 13 13 14 14 13 11 13 13 12 11 10 9 9 10 10 10 10 10 11
6 6 6 6 6 6 7 7 8 9 9 9 10 12 10 10 9 9 10 10 11 12 13 13 13 14 14 14 12 13 13 14 13 10 10 11 9 10 9 10 10 10 11
6 6 6 6 6 7 7 7 8 9 9 10 10 10 10 10 10 9 10 10 10 12 12 13 14 15 15 14 13 14 16 16 14 11 11 13 13 11 10 9 9 9 9
6 6 7 7 7 7 8 8 8 9 10 10 10 11 11 11 10 11 11 12 12 11 12 13 14 15 15 15 14 16 17 16 13 10 11 13 11 13 11 9 9 8 8
7 7 7 7 8 8 8 8 9 10 10 11 12 12 12 12 12 12 13 13 12 11 11 12 14 15 16 16 14 15 16 15 10 9 11 13 13 13 11 12 10 8 7
7 7 7 7 8 8 9 9 10 11 12 13 13 13 13 13 14 14 14 14 13 12 11 11 13 14 16 16 14 15 16 12 8 8 9 12 12 12 13 10 10 7 6
7 8 8 8 8 9 9 9 11 11 12 12 13 12 13 13 13 13 14 14 13 14 12 12 13 14 13 13 16 15 13 9 8 8 9 11 15 17 14 11 10 8 4
7 8 8 9 9 9 10 10 10 10 10 11 11 12 12 13 13 13 13 13 12 11 11 12 13 14 14 24 28 19 10 8 8 8 10 11 13 16 19 21 21 19 11
6 7 8 8 9 9 9 10 10 11 11 11 11 11 10 12 12 13 12 11 10 10 10 11 12 13 16 26 27 23 11 9 9 9 9 10 12 15 12 17 20 21 25
5 6 6 7 7 7 8 8 10 11 12 11 10 10 10 11 11 10 10 10 9 9 8 9 11 12 16 26 26 23 12 9 10 10 10 10 12 15 16 14 14 15 17
4 5 5 6 7 8 8 9 11 11 10 9 10 10 10 10 11 10 10 9 8 8 8 9 11 12 15 24 25 21 8 9 10 11 12 12 12 24 24 16 14 14 14
4 5 6 6 7 8 9 10 12 10 10 11 12 11 11 10 10 10 10 9 8 9 10 10 10 11 11 22 26 21 8 9 9 9 11 19 21 25 25 15 14 15 14
4 5 6 6 7 8 9 10 10 10 11 11 12 11 10 10 9 9 8 9 9 9 10 10 10 10 14 20 26 23 9 9 9 8 8 11 25 26 26 21 15 18 14
5 6 6 7 7 8 8 9 9 10 10 11 11 11 10 10 10 8 8 8 8 9 9 9 9 8 10 17 21 25 20 15 9 8 7 11 24 25 26 20 23 25 18
5 5 6 8 8 8 7 8 9 10 11 12 11 11 11 8 8 8 7 7 7 7 8 8 9 8 8 11 23 24 23 22 10 9 18 20 23 20 17 24 26 19 12
4 5 6 7 9 8 8 7 8 9 11 11 10 10 9 9 8 7 7 7 7 7 7 8 8 7 7 7 7 8 10 14 12 10 15 19 21 17 18 18 15 12 12
4 5 5 7 8 8 8 8 8 9 10 10 9 9 9 8 8 8 8 10 6 10 7 5 6 7 6 12 18 12 8 7 10 9 7 8 9 10 10 10 10 10 11
4 5 6 7 7 8 8 8 8 9 10 9 9 7 7 7 7 6 7 15 17 19 17 15 12 9 14 18 18 18 19 20 20 11 7 8 9 10 10 10 10 10 10
Wind_Direction
31 36 33 30 18 11 8 359 357 353 351 351 344 340 339 335 331 339 343 338 339 337 332 337 335 334 333 331 330 331 326 326 323 321 320 299 278 265 261 257 256 251 242
22 20 23 27 16 10 5 356 355 350 350 348 338 335 330 327 329 338 332 333 337 335 336 338 336 334 330 328 330 328 324 323 331 327 320 315 306 329 295 267 246 240 232
20 10 17 24 15 12 4 354 350 347 347 345 338 336 327 328 334 334 329 334 336 333 331 334 335 330 329 326 327 325 326 322 319 315 312 317 325 331 307 309 293 266 237
22 14 21 20 13 11 2 351 345 343 344 345 341 340 339 336 334 331 327 333 333 330 331 335 335 329 327 323 322 326 320 316 314 313 298 288 294 296 310 314 321 322 295
28 23 24 18 12 10 358 346 341 341 342 344 340 337 333 329 328 327 328 331 327 327 332 335 333 327 322 321 320 319 315 311 307 307 303 294 282 266 277 292 302 308 305
29 23 18 13 9 7 355 343 341 340 342 342 339 337 332 331 330 332 331 329 326 327 332 333 330 324 321 320 319 316 312 308 303 301 301 296 285 275 267 273 288 297 301
26 15 8 5 5 360 351 344 343 340 341 341 339 334 331 330 328 330 328 327 328 330 328 331 327 324 321 320 321 319 313 307 304 303 300 298 288 281 272 269 276 284 292
25 16 8 8 3 354 349 345 341 338 339 339 337 331 330 327 324 325 323 324 325 324 324 328 324 323 322 323 322 319 316 311 308 304 302 298 293 282 274 264 264 272 280
25 14 7 9 360 353 349 343 339 337 337 338 335 328 329 325 324 323 320 322 323 324 327 324 325 324 323 323 323 320 317 313 308 304 303 301 295 286 279 269 255 256 265
25 11 7 4 358 353 345 341 337 334 334 337 334 333 326 323 324 322 323 324 323 323 323 325 327 327 325 324 323 321 317 315 311 306 309 308 302 297 285 276 261 248 252
24 11 6 359 352 350 344 339 336 337 336 334 329 325 323 324 325 323 322 322 320 323 325 327 328 328 326 326 321 320 318 315 311 313 316 312 309 302 295 284 270 252 242
27 14 4 353 349 347 343 340 339 340 336 332 327 324 324 326 325 323 323 322 320 321 325 328 328 327 327 323 320 319 319 315 313 317 319 316 314 310 303 296 286 272 256
22 10 359 351 348 345 343 341 342 339 334 332 328 326 327 326 326 325 324 322 319 320 325 328 327 326 324 320 317 317 315 313 311 317 320 318 316 314 311 305 295 281 270
17 4 354 347 345 343 341 341 341 337 333 332 328 327 326 327 325 324 323 321 322 323 325 326 325 322 319 314 312 316 316 314 310 315 320 321 318 319 319 313 309 295 275
9 2 351 343 341 340 337 340 335 331 331 328 324 322 322 321 320 321 322 323 324 325 323 323 320 317 317 315 319 319 323 318 316 322 329 329 335 343 348 343 345 336 310
3 353 346 341 338 333 334 333 326 327 325 317 314 316 319 322 324 324 326 326 323 321 322 320 318 317 321 322 328 337 334 334 335 337 341 343 349 360 3 8 13 15 14
357 345 341 337 328 328 330 325 326 323 315 309 309 313 317 322 325 327 325 323 321 321 320 318 317 316 317 330 338 351 1 353 351 357 359 0 2 18 12 12 17 17 22
350 338 332 323 319 323 324 324 321 313 309 311 316 321 322 322 323 322 321 321 319 319 315 318 321 322 327 339 348 2 6 359 4 7 8 11 11 28 27 18 20 20 18
352 332 325 321 325 329 332 326 315 311 316 326 331 328 325 325 326 328 328 328 325 322 322 324 325 327 331 343 359 12 2 6 10 11 16 24 25 32 32 23 22 23 18
352 340 333 330 331 331 325 316 315 324 335 336 332 327 327 328 329 334 334 333 332 335 334 333 330 332 337 352 4 19 14 15 18 17 10 23 34 33 35 27 22 27 18
356 354 340 335 331 319 314 314 323 335 334 333 329 328 330 330 335 337 336 336 340 340 338 338 339 345 355 357 6 20 29 26 25 23 12 19 31 33 35 35 29 31 27
2 356 341 329 321 314 315 323 332 331 334 332 332 332 333 338 348 342 340 341 344 344 343 345 351 355 354 3 7 15 28 37 25 19 13 24 33 32 33 35 33 32 29
3 348 334 324 321 316 324 332 330 337 337 335 335 335 336 342 345 345 344 344 346 348 354 356 356 359 3 3 16 18 20 25 28 18 27 31 34 32 28 30 32 30 28
353 341 335 326 317 318 331 330 333 340 336 335 337 339 341 345 346 349 349 349 348 352 2 358 355 358 357 358 9 8 12 18 24 22 23 27 29 32 29 29 28 25 29
341 332 319 309 312 325 331 334 343 342 336 334 338 341 344 343 347 352 353 356 353 6 11 353 352 2 360 15 22 24 17 19 35 31 21 21 22 24 24 25 26 25 24
312 313 314 317 320 327 329 337 346 342 337 339 343 344 345 347 348 347 351 1 5 9 13 14 16 8 17 20 21 23 28 36 38 35 25 26 23 23 22 22 22 23 25